Location: Warszawa
(52.2500°N, 21.0000°E)
Time: 12:42:35
(UTC+01:00)

Altair - Visible Passes

Search period start: 05 March 2024 00:00
Search period end: 15 March 2024 00:00
Orbit: 1501 x 1682 km, 47.2° (Epoch: 04 March)

Date Brightness Start Highest point End Pass type
(mag) Time Alt. Az. Time Alt. Az. Time Alt. Az.
06 Mar 9.5 05:36:48 10° S 05:43:34 24° SE 05:50:22 10° E visible
07 Mar 9.5 05:12:04 10° S 05:18:32 22° SE 05:25:01 10° E visible
08 Mar 9.4 04:47:23 10° S 04:53:31 20° SE 04:59:38 10° E visible
09 Mar 9.4 04:22:45 10° S 04:28:30 19° SE 04:34:13 10° E visible
10 Mar 9.4 03:58:11 10° SSE 04:03:30 17° SE 04:08:45 10° E visible
11 Mar 9.4 03:33:43 10° SSE 03:38:29 15° SE 03:43:12 10° E visible
12 Mar 9.4 03:09:22 10° SSE 03:13:29 14° SE 03:17:34 10° E visible
12 Mar 8.6 05:07:44 10° SSW 05:16:01 39° SSE 05:24:16 10° E visible
13 Mar 9.4 02:45:13 10° SSE 02:48:29 12° SE 02:51:44 10° ESE visible
13 Mar 8.6 04:42:46 10° SSW 04:50:56 37° SE 04:59:03 10° E visible
14 Mar 9.5 02:21:29 10° SE 02:23:30 11° SE 02:25:30 10° ESE visible
14 Mar 8.6 04:17:49 10° SSW 04:25:51 35° SE 04:33:50 10° E visible
